Location: Jetmore Motorplex
(37.9889°N, 99.8876°W)
Time: 05:00:15
(UTC+00:00)

NOSS 3-1 (C) - Pass Details

Date: 17 February 2020
Orbit: 759 x 1449 km, 63.4° (Epoch: 26 March)

Event Time Altitude Azimuth Distance (km) Brightness Sun altitude
Exits shadow 11:46:42 26° 301° (WNW) 2,341 5.0 -20.5°
Maximum altitude 11:50:59 45° 246° (WSW) 1,783 4.4 -19.7°
Drops below altitude 10° 11:59:11 10° 177° (S) 3,537 6.5 -18.1°
Sets 12:02:21 0° 171° (S) 4,529 7.1 -17.4°
